Location: Cortos
(40.7190°N, 4.5893°W)
Time: 19:24:23
(UTC+00:00)

Cosmos 2058 - Pass Details

Date: 05 July 2020
Orbit: 561 x 584 km, 82.5° (Epoch: 05 August)

Event Time Altitude Azimuth Distance (km) Brightness Sun altitude
Exits shadow 23:01:09 63° 262° (W) 647 3.1 -23.8°
Maximum altitude 23:01:21 64° 279° (W) 642 3.1 -23.8°
Drops below altitude 10° 23:05:29 10° 1° (N) 1,886 6.5 -24.1°
Sets 23:07:41 0° 5° (N) 2,784 7.5 -24.2°
